EW8576 Weather Reports


Display with metric or nautical units.
time (UTC)temp
F
wind
direction
speed
MPH
gust
MPH
rain 1hr
in
rain 24hr
in
rain mn
in
humidity
%
barometer
mb
20260510170755 69 279 0.0 7.0 0.00 0.00 0.00 37 1009.9
20260510170248 68 304 1.0 9.0 0.00 0.00 0.00 37 1009.9
20260510165741 68 286 0.0 9.0 0.00 0.00 0.00 36 1010.0
20260510165236 68 288 0.0 4.0 0.00 0.00 0.00 33 1010.0
20260510164730 67 281 0.0 8.0 0.00 0.00 0.00 34 1009.9
20260510164223 67 234 0.0 8.0 0.00 0.00 0.00 33 1010.1
20260510163937 67 325 0.0 4.0 0.00 0.00 0.00 26 1010.1
20260510163434 67 209 0.0 2.0 0.00 0.00 0.00 21 1009.9
20260510162931 67 236 0.0 6.0 0.00 0.00 0.00 20 1009.9
20260510162200 67 234 0.0 6.0 0.00 0.00 0.00 21 1009.9
20260510161654 68 244 0.0 1.0 0.00 0.00 0.00 16 1010.0
20260510161147 68 257 0.0 11.0 0.00 0.00 0.00 12 1010.0
20260510160641 67 294 0.0 11.0 0.00 0.00 0.00 1 1010.0
20260510160136 67 252 0.0 5.0 0.00 0.00 0.00 1 1010.1
20260510155859 67 182 0.0 5.0 0.00 0.00 0.00 1 1010.1
20260510155124 66 269 0.0 4.0 0.00 0.00 0.00 1 1010.1
20260510154618 66 271 0.0 1.0 0.00 0.00 0.00 1 1010.2
20260510154112 66 179 0.0 6.0 0.00 0.00 0.00 1 1010.1
20260510153606 66 212 0.0 6.0 0.00 0.00 0.00 1 1010.1
20260510153100 65 248 0.0 8.0 0.00 0.00 0.00 1 1010.2
20260510152553 65 267 1.0 10.0 0.00 0.00 0.00 1 1010.1
20260510152047 65 260 1.0 10.0 0.00 0.00 0.00 1 1010.3
20260510151542 65 261 0.0 9.0 0.00 0.00 0.00 1 1010.3
20260510151038 64 227 0.0 9.0 0.00 0.00 0.00 1 1010.2
20260510150538 64 291 0.0 6.0 0.00 0.00 0.00 1 1010.2
20260510150038 63 263 0.0 5.0 0.00 0.00 0.00 1 1010.1
20260510145759 63 262 0.0 7.0 0.00 0.00 0.00 1 1010.1
20260510145310 63 282 0.0 7.0 0.00 0.00 0.00 1 1010.2
20260510144538 63 277 0.0 6.0 0.00 0.00 0.00 1 1010.2
20260510144038 63 285 0.0 6.0 0.00 0.00 0.00 1 1010.2
20260510144021 63 264 0.0 6.0 0.00 0.00 0.00 1 1010.2
20260510143038 63 275 0.0 6.0 0.00 0.00 0.00 1 1010.2
20260510142809 63 290 0.0 6.0 0.00 0.00 0.00 1 1010.2
20260510142038 63 290 0.0 1.0 0.00 0.00 0.00 1 1010.1
20260510141755 62 290 0.0 2.0 0.00 0.00 0.00 1 1010.1
20260510141036 62 293 0.0 2.0 0.00 0.00 0.00 1 1010.1
20260510140536 62 242 1.0 11.0 0.00 0.00 0.00 1 1010.0
20260510140035 61 186 1.0 11.0 0.00 0.00 0.00 1 1010.1
20260510135535 61 238 0.0 9.0 0.00 0.00 0.00 1 1010.1
20260510135034 61 294 0.0 9.0 0.00 0.00 0.00 1 1010.2
20260510134534 60 237 1.0 10.0 0.00 0.00 0.00 1 1010.1
20260510134028 60 241 1.0 11.0 0.00 0.00 0.00 1 1010.2
20260510133745 59 246 1.0 11.0 0.00 0.00 0.00 1 1010.2
20260510133028 59 262 1.0 11.0 0.00 0.00 0.00 1 1010.1
20260510132528 58 236 1.0 11.0 0.00 0.00 0.00 1 1010.3
20260510132026 58 255 0.0 7.0 0.00 0.00 0.00 1 1010.4
20260510131526 57 246 1.0 7.0 0.00 0.00 0.00 1 1010.5
20260510131026 56 241 0.0 7.0 0.00 0.00 0.00 1 1010.5
20260510130748 56 271 0.0 0.0 0.00 0.00 0.00 1 1010.4
20260510130025 55 275 0.0 0.0 0.00 0.00 0.00 1 1010.4
20260510125743 55 275 0.0 0.0 0.00 0.00 0.00 1 1010.5
20260510125019 54 277 0.0 0.0 0.00 0.00 0.00 1 1010.5
20260510125009 54 278 0.0 0.0 0.00 0.00 0.00 1 1010.6
20260510124020 53 277 0.0 0.0 0.00 0.00 0.00 1 1010.5
20260510123520 53 276 0.0 0.0 0.00 0.00 0.00 1 1010.3
20260510123018 53 278 0.0 0.0 0.00 0.00 0.00 1 1010.3
20260510122518 52 278 0.0 0.0 0.00 0.00 0.00 1 1010.3
20260510122018 52 278 0.0 0.0 0.00 0.00 0.00 1 1010.2
20260510121518 52 278 0.0 0.0 0.00 0.00 0.00 1 1010.1
20260510121228 51 278 0.0 0.0 0.00 0.00 0.00 1 1010.1
20260510121114 51 0 0.0 0.0 0.00 0.00 0.00 1 1010.1
20260510120015 51 278 0.0 0.0 0.00 0.00 0.00 1 1010.2
20260510115514 51 278 0.0 0.0 0.00 0.00 0.00 1 1010.1
20260510115013 51 278 0.0 0.0 0.00 0.00 0.00 1 1010.1
20260510114512 51 278 0.0 0.0 0.00 0.00 0.00 1 1010.0
20260510114231 51 278 0.0 0.0 0.00 0.00 0.00 1 1010.1
20260510113507 51 278 0.0 0.0 0.00 0.00 0.00 1 1010.0
20260510113007 51 278 0.0 0.0 0.00 0.00 0.00 1 1010.0
20260510112508 51 278 0.0 0.0 0.00 0.00 0.00 1 1009.9
20260510112227 51 278 0.0 0.0 0.00 0.00 0.00 1 1009.8
20260510111508 51 278 0.0 0.0 0.00 0.00 0.00 1 1009.8
20260510111008 51 278 0.0 0.0 0.00 0.00 0.00 1 1009.9
20260510110508 51 278 0.0 0.0 0.00 0.00 0.00 1 1009.9
20260510110231 51 278 0.0 0.0 0.00 0.00 0.00 1 1009.8
20260510105507 51 278 0.0 0.0 0.00 0.00 0.00 1 1009.7
20260510105007 50 278 0.0 0.0 0.00 0.00 0.00 1 1009.5
20260510104733 50 278 0.0 0.0 0.00 0.00 0.00 1 1009.6
20260510104212 50 278 0.0 0.0 0.00 0.00 0.00 1 1009.4
20260510104056 50 278 0.0 0.0 0.00 0.00 0.00 1 1009.4
20260510103008 50 278 0.0 0.0 0.00 0.00 0.00 1 1009.5
20260510102507 50 278 0.0 0.0 0.00 0.00 0.00 1 1009.4
20260510102007 50 278 0.0 0.0 0.00 0.00 0.00 1 1009.4
20260510101508 50 278 0.0 0.0 0.00 0.00 0.00 1 1009.4
20260510101213 50 278 0.0 0.0 0.00 0.00 0.00 1 1009.5
20260510101056 50 278 0.0 0.0 0.00 0.00 0.00 1 1009.4
20260510100228 50 278 0.0 0.0 0.00 0.00 0.00 1 1009.3
20260510095508 50 278 0.0 0.0 0.00 0.00 0.00 1 1009.3
20260510095008 50 278 0.0 0.0 0.00 0.00 0.00 1 1009.2
20260510094508 51 278 0.0 0.0 0.00 0.00 0.00 1 1009.2
20260510094008 51 278 0.0 0.0 0.00 0.00 0.00 1 1009.2
20260510093508 50 278 0.0 1.0 0.00 0.00 0.00 1 1009.2
20260510093006 50 278 0.0 1.0 0.00 0.00 0.00 1 1008.9
20260510092506 50 284 0.0 0.0 0.00 0.00 0.00 1 1009.0
20260510092004 50 255 0.0 0.0 0.00 0.00 0.00 1 1009.0
20260510091735 50 255 0.0 0.0 0.00 0.00 0.00 1 1009.0
20260510091004 50 255 0.0 0.0 0.00 0.00 0.00 1 1008.9
20260510090502 50 255 0.0 0.0 0.00 0.00 0.00 1 1008.9
20260510085958 50 255 0.0 0.0 0.00 0.00 0.00 1 1008.7
20260510085458 50 255 0.0 0.0 0.00 0.00 0.00 1 1008.6
20260510084955 50 255 0.0 0.0 0.00 0.00 0.00 1 1008.6
20260510084454 50 255 0.0 0.0 0.00 0.00 0.00 1 1008.8
20260510083949 50 255 0.0 0.0 0.00 0.00 0.00 1 1008.8
20260510083443 50 255 0.0 0.0 0.00 0.00 0.00 1 1008.6
20260510082937 50 255 0.0 0.0 0.00 0.00 0.00 1 1008.7
20260510082436 50 255 0.0 0.0 0.00 0.00 0.00 1 1008.9
20260510081935 50 255 0.0 0.0 0.00 0.00 0.00 1 1009.0
20260510081435 50 255 0.0 0.0 0.00 0.00 0.00 1 1009.0
20260510080934 50 255 0.0 0.0 0.00 0.00 0.00 1 1008.8
20260510080433 50 255 0.0 0.0 0.00 0.00 0.00 1 1008.8
20260510075933 51 255 0.0 0.0 0.00 0.00 0.00 1 1009.0
20260510075656 51 255 0.0 0.0 0.00 0.00 0.00 1 1009.3
20260510074932 51 255 0.0 0.0 0.00 0.00 0.00 1 1009.3
20260510074430 51 255 0.0 2.0 0.00 0.00 0.00 1 1009.1
20260510073930 51 255 0.0 2.0 0.00 0.00 0.00 1 1009.1
20260510073429 52 255 0.0 0.0 0.00 0.00 0.00 1 1009.1
20260510072930 52 255 0.0 0.0 0.00 0.00 0.00 1 1009.2
20260510072430 52 255 0.0 0.0 0.00 0.00 0.00 1 1009.4
20260510071927 52 255 0.0 0.0 0.00 0.00 0.00 1 1009.6
20260510071425 52 255 0.0 0.0 0.00 0.00 0.00 1 1009.6
20260510070925 52 255 0.0 0.0 0.00 0.00 0.00 1 1009.6
20260510070424 52 255 0.0 0.0 0.00 0.00 0.00 1 1009.6
20260510065924 52 255 0.0 0.0 0.00 0.00 0.00 1 1009.5
20260510065418 52 255 0.0 0.0 0.00 0.00 0.00 1 1009.6
20260510064911 52 255 0.0 0.0 0.00 0.00 0.00 1 1009.6
20260510064630 52 255 0.0 0.0 0.00 0.00 0.00 1 1009.6
20260510063859 52 255 0.0 1.0 0.00 0.00 0.00 1 1009.5
20260510063353 52 255 0.0 1.0 0.00 0.00 0.00 1 1009.6
20260510062846 52 255 0.0 0.0 0.00 0.00 0.00 1 1009.3
20260510062340 52 255 0.0 0.0 0.00 0.00 0.00 1 1009.2
20260510061834 52 255 0.0 0.0 0.00 0.00 0.00 1 1009.1
20260510061329 52 255 0.0 0.0 0.00 0.00 0.00 1 1009.0
20260510060823 52 255 0.0 0.0 0.00 0.00 0.00 1 1009.0
20260510060318 52 255 0.0 0.0 0.00 0.00 0.00 1 1009.0
20260510055811 52 255 0.0 0.0 0.00 0.00 0.00 1 1009.0
20260510055755 52 255 0.0 0.0 0.00 0.00 0.00 1 1009.1
20260510054759 51 255 0.0 0.0 0.00 0.00 0.00 1 1009.1
20260510054253 51 255 0.0 0.0 0.00 0.00 0.00 1 1009.1
20260510053747 51 255 0.0 0.0 0.00 0.00 0.00 1 1009.1
20260510053241 51 255 0.0 0.0 0.00 0.00 0.00 1 1009.1
20260510052735 51 255 0.0 0.0 0.00 0.00 0.00 1 1009.0
20260510052449 51 255 0.0 0.0 0.00 0.00 0.00 1 1009.2
20260510051950 51 255 0.0 0.0 0.00 0.00 0.00 1 1009.2
20260510051217 50 255 0.0 0.0 0.00 0.00 0.00 1 1009.2
20260510050711 50 256 0.0 0.0 0.00 0.00 0.00 1 1009.1
20260510050205 50 256 0.0 0.0 0.00 0.00 0.00 1 1009.0
20260510045658 50 256 0.0 0.0 0.00 0.00 0.00 1 1008.8
20260510045152 50 256 0.0 0.0 0.00 0.00 0.00 1 1008.8
20260510044647 50 256 0.0 0.0 0.00 0.00 0.00 1 1008.9
20260510044141 49 256 0.0 0.0 0.00 0.00 0.00 1 1008.9
20260510043635 49 256 0.0 0.0 0.00 0.00 0.00 1 1008.9
20260510043129 49 256 0.0 0.0 0.00 0.00 0.00 1 1008.9
20260510042623 49 256 0.0 0.0 0.00 0.00 0.00 1 1008.9
20260510042117 49 256 0.0 0.0 0.00 0.00 0.00 1 1008.9
20260510041834 49 256 0.0 0.0 0.00 0.00 0.00 1 1009.0
20260510041105 49 256 0.0 0.0 0.00 0.00 0.00 1 1008.9
20260510040600 49 256 0.0 0.0 0.00 0.00 0.00 1 1008.8
20260510040053 49 256 0.0 0.0 0.00 0.00 0.00 1 1008.9
20260510035546 49 256 0.0 0.0 0.00 0.00 0.00 1 1008.7
20260510035041 50 256 0.0 0.0 0.00 0.00 0.00 1 1008.7
20260510034535 50 256 0.0 0.0 0.00 0.00 0.00 1 1008.7
20260510034033 50 256 0.0 0.0 0.00 0.00 0.00 1 1008.7
20260510033757 50 256 0.0 0.0 0.00 0.00 0.00 1 1008.6
20260510033031 50 256 0.0 0.0 0.00 0.00 0.00 1 1008.7
20260510032529 51 256 0.0 0.0 0.00 0.00 0.00 1 1008.8
20260510032247 51 256 0.0 0.0 0.00 0.00 0.00 1 1008.7
20260510031525 51 256 0.0 0.0 0.00 0.00 0.00 1 1008.8
20260510031023 51 256 0.0 0.0 0.00 0.00 0.00 1 1008.9
20260510030739 51 256 0.0 0.0 0.00 0.00 0.00 1 1008.9
20260510030021 51 256 0.0 0.0 0.00 0.00 0.00 1 1008.8
20260510025521 51 256 0.0 0.0 0.00 0.00 0.00 1 1008.7
20260510025020 51 256 0.0 0.0 0.00 0.00 0.00 1 1008.9
20260510024517 51 256 0.0 0.0 0.00 0.00 0.00 1 1008.9
20260510024457 51 256 0.0 0.0 0.00 0.00 0.00 1 1008.9
20260510023517 51 256 0.0 0.0 0.00 0.00 0.00 1 1008.7
20260510023017 51 256 0.0 0.0 0.00 0.00 0.00 1 1008.8
20260510022517 51 256 0.0 0.0 0.00 0.00 0.00 1 1008.9
20260510022241 51 256 0.0 0.0 0.00 0.00 0.00 1 1008.8
20260510021517 51 256 0.0 0.0 0.00 0.00 0.00 1 1008.7
20260510021240 52 256 0.0 0.0 0.00 0.00 0.00 1 1008.5
20260510020515 52 256 0.0 0.0 0.00 0.00 0.00 1 1008.5
20260510020010 52 256 0.0 0.0 0.00 0.00 0.00 1 1008.5
20260510015509 52 256 0.0 0.0 0.00 0.00 0.00 1 1008.5
20260510015009 53 256 0.0 0.0 0.00 0.00 0.00 1 1008.8
20260510014509 53 256 0.0 0.0 0.00 0.00 0.00 1 1008.8
20260510014007 53 255 0.0 0.0 0.00 0.00 0.00 1 1008.8
20260510013508 53 255 0.0 0.0 0.00 0.00 0.00 1 1008.8
20260510013007 53 254 0.0 0.0 0.00 0.00 0.00 1 1008.7
20260510012505 53 254 0.0 0.0 0.00 0.00 0.00 1 1008.6
20260510012004 53 254 0.0 0.0 0.00 0.00 0.00 1 1008.7
20260510011958 53 254 0.0 0.0 0.00 0.00 0.00 1 1008.7
20260510011003 53 254 0.0 0.0 0.00 0.00 0.00 1 1008.6
20260510010503 53 255 0.0 0.0 0.00 0.00 0.00 1 1008.4
20260510010001 53 256 0.0 0.0 0.00 0.00 0.00 1 1008.3
20260510005501 54 256 0.0 0.0 0.00 0.00 0.00 1 1008.3
20260510004959 54 256 0.0 0.0 0.00 0.00 0.00 1 1008.2
20260510004458 54 256 0.0 0.0 0.00 0.00 0.00 1 1008.2
20260510003953 54 256 0.0 0.0 0.00 0.00 0.00 1 1008.3
20260510003451 54 256 0.0 0.0 0.00 0.00 0.00 1 1008.2
20260510002949 54 256 0.0 5.0 0.00 0.00 0.00 1 1008.2
20260510002714 54 256 0.0 5.0 0.00 0.00 0.00 1 1008.1
20260510001949 54 257 0.0 4.0 0.00 0.00 0.00 1 1007.9
20260510001448 54 257 0.0 2.0 0.00 0.00 0.00 1 1007.8
20260510000949 54 259 0.0 0.0 0.00 0.00 0.00 1 1007.7
20260510000449 54 148 0.0 0.0 0.00 0.00 0.00 1 1007.6
20260509235949 54 147 0.0 0.0 0.00 0.00 0.00 1 1007.4
20260509235721 54 147 0.0 1.0 0.00 0.00 0.00 1 1007.4
20260509234949 55 147 0.0 4.0 0.00 0.00 0.00 1 1007.3
20260509234448 55 185 0.0 4.0 0.00 0.00 0.00 1 1007.2
20260509233949 55 235 0.0 0.0 0.00 0.00 0.00 1 1007.2
20260509233449 55 234 0.0 0.0 0.00 0.00 0.00 1 1007.2
20260509232949 55 234 0.0 0.0 0.00 0.00 0.00 1 1007.0
20260509232449 55 234 0.0 0.0 0.00 0.00 0.00 1 1007.1
20260509231948 55 234 0.0 0.0 0.00 0.00 0.00 1 1007.1
20260509231449 55 234 0.0 0.0 0.00 0.00 0.00 1 1007.2
20260509231209 55 234 0.0 4.0 0.00 0.00 0.00 1 1007.2
20260509230449 55 234 0.0 4.0 0.00 0.00 0.00 1 1007.2
20260509230211 55 234 0.0 5.0 0.00 0.00 0.00 1 1007.3
20260509225449 56 236 0.0 5.0 0.00 0.00 0.00 1 1007.4
20260509224951 56 236 0.0 1.0 0.00 0.00 0.00 1 1007.4
20260509224448 56 236 0.0 2.0 0.00 0.00 0.00 1 1007.6
20260509223948 56 193 0.0 2.0 0.00 0.00 0.00 1 1007.4
20260509223449 56 190 0.0 2.0 0.00 0.00 0.00 1 1007.3
20260509223214 56 229 0.0 2.0 0.00 0.00 0.00 1 1007.3
20260509222444 56 271 0.0 0.0 0.00 0.00 0.00 1 1007.3
20260509221943 56 273 0.0 0.0 0.00 0.00 0.00 1 1007.2
20260509221442 56 273 0.0 0.0 0.00 0.00 0.00 1 1007.1
20260509220940 56 273 0.0 0.0 0.00 0.00 0.00 1 1007.1
20260509220441 56 273 0.0 0.0 0.00 0.00 0.00 1 1007.1
20260509215941 56 273 0.0 0.0 0.00 0.00 0.00 1 1007.3
20260509215439 56 273 0.0 0.0 0.00 0.00 0.00 1 1007.4
20260509215202 55 273 0.0 0.0 0.00 0.00 0.00 1 1007.6
20260509214437 55 273 0.0 0.0 0.00 0.00 0.00 1 1007.6
20260509213936 55 273 0.0 0.0 0.00 0.00 0.00 1 1007.6
20260509213432 55 273 0.0 0.0 0.00 0.00 0.00 1 1007.6
20260509212932 55 273 0.0 0.0 0.00 0.00 0.00 1 1007.6
20260509212430 55 273 0.0 0.0 0.00 0.00 0.00 1 1007.7
20260509211931 55 233 0.0 0.0 0.00 0.00 0.00 1 1007.6
20260509211429 55 234 0.0 5.0 0.00 0.00 0.00 1 1007.8
20260509210928 55 231 1.0 8.0 0.00 0.00 0.00 1 1007.7
20260509210422 55 231 0.0 8.0 0.00 0.00 0.00 1 1007.8
20260509205915 55 220 0.0 5.0 0.00 0.00 0.00 1 1007.8
20260509205628 55 0 0.0 2.0 0.00 0.00 0.00 1 1007.8
20260509204903 54 219 0.0 4.0 0.00 0.00 0.00 1 1007.8
20260509204358 54 219 0.0 4.0 0.00 0.00 0.00 1 1007.9
20260509203852 54 219 0.0 4.0 0.00 0.00 0.00 1 1008.0
20260509203346 54 220 0.0 1.0 0.00 0.00 0.00 1 1008.2
20260509202840 54 219 0.0 1.0 0.00 0.00 0.00 1 1008.3
20260509202334 54 220 0.0 1.0 0.00 0.00 0.00 1 1008.4
20260509202051 54 220 0.0 5.0 0.00 0.00 0.00 1 1008.5
20260509201322 55 220 0.0 5.0 0.00 0.00 0.00 1 1008.5
20260509200816 55 219 0.0 2.0 0.00 0.00 0.00 1 1008.5
20260509200309 55 219 0.0 0.0 0.00 0.00 0.00 1 1008.6
20260509200031 55 219 0.0 4.0 0.00 0.00 0.00 1 1008.6
20260509195258 55 219 0.0 4.0 0.00 0.00 0.00 1 1008.7
20260509194752 55 215 0.0 0.0 0.00 0.00 0.00 1 1008.7
20260509194247 55 215 0.0 0.0 0.00 0.00 0.00 1 1008.8
20260509193740 55 215 0.0 0.0 0.00 0.00 0.00 1 1008.9
20260509193233 55 212 0.0 0.0 0.00 0.00 0.00 1 1008.9
20260509192951 55 211 0.0 0.0 0.00 0.00 0.00 1 1009.0
20260509192222 55 211 0.0 0.0 0.00 0.00 0.00 1 1009.0
20260509191716 54 211 0.0 2.0 0.00 0.00 0.00 1 1009.0
20260509191655 54 211 0.0 2.0 0.00 0.00 0.00 1 1009.1
20260509190704 54 254 0.0 0.0 0.00 0.00 0.00 1 1009.2
20260509190202 54 254 0.0 0.0 0.00 0.00 0.00 1 1009.3
20260509185648 54 254 0.0 0.0 0.00 0.00 0.00 1 1009.5
20260509185142 54 254 0.0 0.0 0.00 0.00 0.00 1 1009.6
20260509184636 54 254 0.0 0.0 0.00 0.00 0.00 1 1009.6
20260509184130 54 254 0.0 0.0 0.00 0.00 0.00 1 1009.5
20260509183844 54 254 0.0 0.0 0.00 0.00 0.00 1 1009.6
20260509183118 54 254 0.0 0.0 0.00 0.00 0.00 1 1009.5
20260509182612 54 254 0.0 0.0 0.00 0.00 0.00 1 1009.4
20260509182106 54 254 0.0 7.0 0.00 0.00 0.00 1 1009.4
20260509181559 53 247 0.0 7.0 0.00 0.00 0.00 1 1009.4
20260509181317 54 254 0.0 0.0 0.00 0.00 0.00 1 1009.4
20260509180548 54 0 0.0 0.0 0.00 0.00 0.00 1 1009.4
20260509180042 54 284 0.0 6.0 0.00 0.00 0.00 1 1009.2
20260509175756 54 288 0.0 6.0 0.00 0.00 0.00 1 1009.4
20260509175030 54 60 0.0 0.0 0.00 0.00 0.00 1 1009.4
20260509174526 54 59 0.0 0.0 0.00 0.00 0.00 1 1009.3
20260509174018 54 60 0.0 0.0 0.00 0.00 0.00 1 1009.2
20260509173512 54 63 0.0 0.0 0.00 0.00 0.00 1 1009.2
20260509173006 53 66 0.0 0.0 0.00 0.00 0.00 1 1009.2
20260509172500 53 63 0.0 0.0 0.00 0.00 0.00 1 1009.1
20260509172211 53 64 0.0 0.0 0.00 0.00 0.00 1 1009.0
20260509171447 53 63 0.0 0.0 0.00 0.00 0.00 1 1009.1